Winston-Salem, NC

1:45 PM EDT on March 25, 2017 (GMT -0400)
Smith Reynolds

Weather History for KINT - July, 2013

Change the Weather History Date:

Wednesday, July 3, 2013

  Actual Average Record
Temperature  
Mean Temperature 76 °F -  
Max Temperature 80 °F 84 °F 96 °F (1991)
Min Temperature 71 °F 67 °F 53 °F (1979)
Cooling Degree Days 10    
Growing Degree Days 26 (Base 50)    
Moisture  
Dew Point 71 °F    
Average Humidity 90    
Maximum Humidity 97    
Minimum Humidity 71    
Precipitation  
Precipitation 0.38 in - - ()
Sea Level Pressure  
Sea Level Pressure 30.21 in    
Wind  
Wind Speed 4 mph (SSE)    
Max Wind Speed 8 mph    
Max Gust Speed -    
Visibility 8 miles    
Events Rain , Thunderstorm    
Averages and records for this station are not official NWS values.
T = Trace of Precipitation, MM = Missing Value Source: NWS Daily Summary

Daily Weather History Graph

Daily Weather History Graph

Search for Another Location

Airport or City:

Trip Planner

Search our weather history database for the weather conditions in past years. The results will help you decide how hot, cold, wet, or windy it might be!

Date:

Astronomy

Jul. 03, 2013 Rise Set
Actual Time 6:08 AM EDT 8:41 PM EDT
Civil Twilight 5:38 AM EDT 9:11 PM EDT
Nautical Twilight 5:00 AM EDT 9:49 PM EDT
Astronomical Twilight 4:19 AM EDT 10:30 PM EDT
Moon 2:41 AM EDT (7/3) 4:53 PM EDT (7/3)
Length of Visible Light 15h 33m
Length of Day
14h 33m
Waning Crescent, 18% of the Moon is Illuminated
Jul 3
Waning Crescent
Jul 8
New
Jul 15
First Quarter
Jul 22
Full
Jul 29
Last Quarter

Hourly Weather History & Observations

Time (EDT) Temp. Heat Index Dew Point Humidity Pressure Visibility Wind Dir Wind Speed Gust Speed Precip Events Conditions
12:31 AM 71.6 °F - 69.8 °F 94% 30.18 in 7.0 mi SSE 4.6 mph - 0.02 in Rain Light Rain
12:44 AM 71.6 °F - 69.8 °F 94% 30.18 in 4.0 mi SSE 4.6 mph - 0.04 in Rain Rain
12:54 AM 72.0 °F - 70.0 °F 93% 30.14 in 10.0 mi SE 5.8 mph - 0.04 in Rain Light Rain
1:24 AM 71.6 °F - 69.8 °F 94% 30.17 in 2.0 mi SE 4.6 mph - 0.11 in Rain Heavy Rain
1:26 AM 71.6 °F - 69.8 °F 94% 30.17 in 1.8 mi SE 4.6 mph - 0.12 in Rain Heavy Rain
1:31 AM 71.6 °F - 69.8 °F 94% 30.17 in 3.0 mi SE 3.5 mph - 0.13 in Rain , Thunderstorm Thunderstorms and Rain
1:54 AM 72.0 °F - 70.0 °F 93% 30.14 in 4.0 mi South 3.5 mph - 0.18 in Rain Heavy Rain
2:11 AM 71.6 °F - 69.8 °F 94% 30.17 in 10.0 mi Calm Calm - 0.00 in   Overcast
2:25 AM 71.6 °F - 69.8 °F 94% 30.16 in 10.0 mi South 4.6 mph - 0.00 in   Overcast
2:38 AM 71.6 °F - 69.8 °F 94% 30.16 in 9.0 mi South 4.6 mph - 0.00 in Rain Light Rain
2:54 AM 72.0 °F - 71.1 °F 97% 30.13 in 7.0 mi South 5.8 mph - 0.01 in Rain Light Rain
3:54 AM 72.0 °F - 71.1 °F 97% 30.14 in 10.0 mi South 5.8 mph - 0.00 in   Overcast
4:54 AM 72.0 °F - 71.1 °F 97% 30.15 in 10.0 mi South 3.5 mph - 0.01 in   Overcast
5:54 AM 73.0 °F - 71.1 °F 93% 30.17 in 8.0 mi South 3.5 mph - N/A   Overcast
6:54 AM 73.0 °F - 71.1 °F 93% 30.19 in 7.0 mi South 4.6 mph - 0.00 in Rain Light Rain
7:05 AM 73.4 °F - 71.6 °F 94% 30.22 in 6.0 mi South 5.8 mph - 0.00 in Rain Light Rain
7:24 AM 73.4 °F - 71.6 °F 94% 30.23 in 6.0 mi South 3.5 mph - 0.00 in Rain Light Rain
7:34 AM 73.4 °F - 71.6 °F 94% 30.23 in 6.0 mi Calm Calm - 0.00 in Rain Light Rain
7:47 AM 73.4 °F - 71.6 °F 94% 30.24 in 6.0 mi South 3.5 mph - 0.00 in Rain Light Rain
7:54 AM 73.0 °F - 71.1 °F 93% 30.21 in 6.0 mi South 4.6 mph - 0.00 in Rain Light Rain
8:32 AM 73.4 °F - 71.6 °F 94% 30.25 in 5.0 mi Calm Calm - 0.02 in Rain Light Rain
8:54 AM 73.0 °F - 72.0 °F 96% 30.23 in 5.0 mi Calm Calm - 0.02 in Rain Light Rain
9:54 AM 73.9 °F - 71.1 °F 91% 30.22 in 10.0 mi Variable 3.5 mph - 0.00 in Rain Light Rain
10:02 AM 75.2 °F - 71.6 °F 89% 30.25 in 10.0 mi SSE 4.6 mph - 0.00 in   Overcast
10:17 AM 75.2 °F - 71.6 °F 89% 30.25 in 10.0 mi South 4.6 mph - 0.00 in   Overcast
10:46 AM 75.2 °F - 71.6 °F 89% 30.25 in 10.0 mi Variable 3.5 mph - 0.00 in   Overcast
10:54 AM 75.9 °F - 71.1 °F 85% 30.22 in 10.0 mi South 4.6 mph - 0.00 in   Overcast
11:08 AM 75.2 °F - 71.6 °F 89% 30.26 in 10.0 mi SSE 5.8 mph - N/A   Overcast
11:16 AM 75.2 °F - 71.6 °F 89% 30.26 in 10.0 mi South 5.8 mph - N/A   Overcast
11:26 AM 75.2 °F - 71.6 °F 89% 30.26 in 10.0 mi South 5.8 mph - N/A   Mostly Cloudy
11:54 AM 78.1 °F - 70.0 °F 76% 30.23 in 10.0 mi Variable 4.6 mph - N/A   Scattered Clouds
12:54 PM 79.0 °F - 70.0 °F 74% 30.22 in 10.0 mi Calm Calm - 0.00 in Rain Light Rain
1:14 PM 78.8 °F - 69.8 °F 74% 30.24 in 10.0 mi SSE 4.6 mph - 0.00 in   Mostly Cloudy
1:37 PM 75.2 °F - 71.6 °F 89% 30.25 in 5.0 mi SE 5.8 mph - 0.02 in Rain , Thunderstorm Thunderstorms and Rain
1:46 PM 73.4 °F - 71.6 °F 94% 30.25 in 2.5 mi SE 8.1 mph - 0.07 in Rain Heavy Rain
1:54 PM 73.9 °F - 72.0 °F 93% 30.22 in 3.0 mi SE 3.5 mph - 0.08 in Rain Light Rain
2:54 PM 77.0 °F - 73.0 °F 88% 30.21 in 10.0 mi East 4.6 mph - 0.01 in   Scattered Clouds
3:54 PM 79.0 °F - 73.0 °F 82% 30.19 in 10.0 mi South 4.6 mph - 0.00 in   Mostly Cloudy
4:54 PM 80.1 °F 83.2 °F 70.0 °F 71% 30.18 in 10.0 mi SSE 6.9 mph - 0.01 in   Partly Cloudy
5:02 PM 78.8 °F - 69.8 °F 74% 30.22 in 10.0 mi SSE 6.9 mph - N/A   Mostly Cloudy
5:54 PM 79.0 °F - 71.1 °F 77% 30.17 in 10.0 mi South 5.8 mph - N/A   Mostly Cloudy
6:01 PM 78.8 °F - 71.6 °F 78% 30.20 in 10.0 mi SSE 4.6 mph - N/A   Mostly Cloudy
6:54 PM 75.9 °F - 71.1 °F 85% 30.19 in 10.0 mi South 5.8 mph - 0.01 in   Mostly Cloudy
7:54 PM 75.0 °F - 72.0 °F 90% 30.20 in 10.0 mi South 4.6 mph - N/A   Partly Cloudy
8:54 PM 75.0 °F - 72.0 °F 90% 30.21 in 10.0 mi SSE 3.5 mph - N/A   Mostly Cloudy
9:54 PM 73.9 °F - 72.0 °F 93% 30.22 in 10.0 mi SSE 4.6 mph - N/A   Partly Cloudy
10:25 PM 73.4 °F - 71.6 °F 94% 30.25 in 10.0 mi SSE 5.8 mph - N/A   Mostly Cloudy
10:37 PM 73.4 °F - 71.6 °F 94% 30.25 in 10.0 mi SSE 4.6 mph - N/A   Scattered Clouds
10:47 PM 73.4 °F - 71.6 °F 94% 30.25 in 10.0 mi SSE 5.8 mph - N/A   Mostly Cloudy
10:54 PM 73.9 °F - 72.0 °F 93% 30.22 in 10.0 mi SSE 5.8 mph - N/A   Scattered Clouds
11:07 PM 73.4 °F - 71.6 °F 94% 30.25 in 10.0 mi South 4.6 mph - N/A   Mostly Cloudy
11:25 PM 73.4 °F - 71.6 °F 94% 30.25 in 10.0 mi SSE 3.5 mph - 0.01 in   Mostly Cloudy
11:54 PM 73.9 °F - 72.0 °F 93% 30.22 in 10.0 mi SSE 4.6 mph - 0.01 in   Scattered Clouds